Location: Nianha
(10.8000°N, 4.6333°W)
Time: 02:01:42
(UTC+00:00)

Cosmos 990 Rocket - Pass Details

Date: 14 November 2019
Orbit: 747 x 769 km, 74.0° (Epoch: 28 January)

Event Time Altitude Azimuth Distance (km) Brightness Sun altitude
Rises 04:50:26 0° 202° (SSW) 3,180 7.1 -20.4°
Reaches altitude 10° 04:52:49 10° 206° (SSW) 2,257 6.3 -19.8°
Maximum altitude 04:57:49 55° 283° (WNW) 895 4.0 -18.7°
Drops below altitude 10° 05:02:50 10° 1° (N) 2,265 6.3 -17.5°
Sets 05:05:14 0° 6° (N) 3,191 7.1 -16.9°
